Location: Caltech
(34.1382°N, 118.1253°W)
Time: 16:23:36
(UTC-07:00)

Cosmos 2360 Rocket - Visible Passes

Search period start: 26 April 2017 00:00
Search period end: 06 May 2017 00:00
Orbit: 832 x 847 km, 71.0° (Epoch: 25 April)

Date Brightness Start Highest point End Pass type
(mag) Time Alt. Az. Time Alt. Az. Time Alt. Az.
26 Apr 2.9 20:23:50 10° SSE 20:28:41 31° ESE 20:33:34 10° NE visible
26 Apr 3.9 22:07:38 10° WSW 22:12:34 31° WNW 22:17:33 10° N visible
27 Apr 3.0 20:08:18 10° SSE 20:13:02 28° ESE 20:17:48 10° NE visible
27 Apr 3.8 21:51:49 10° SW 21:56:52 33° WNW 22:01:57 10° N visible
28 Apr 3.8 21:36:03 10° SW 21:41:10 35° WNW 21:46:21 10° N visible
29 Apr 3.7 21:20:16 10° SW 21:25:28 38° WNW 21:30:44 10° N visible
30 Apr 3.6 21:04:30 10° SW 21:09:47 40° WNW 21:15:06 10° N visible
01 May 3.5 20:48:45 10° SW 20:54:05 43° WNW 20:59:29 10° N visible
02 May 3.4 20:33:00 10° SW 20:38:24 46° WNW 20:43:51 10° N visible
03 May 3.8 05:30:32 10° N 05:35:55 42° ENE 05:41:14 10° SE visible
03 May 3.3 20:17:16 10° SW 20:22:43 50° WNW 20:28:13 10° N visible
04 May 3.9 05:14:55 10° N 05:20:13 39° ENE 05:25:28 10° SE visible
04 May 3.2 20:01:32 10° SW 20:07:02 53° WNW 20:12:35 10° N visible
05 May 4.0 04:59:18 10° N 05:04:32 37° ENE 05:09:42 10° SE visible
